GFSNE_prec_cloud_003.txt.gz
Cloud_Cover
5 2 2 4 5 5 18 40 69 100 100 97 100 54 41 5 3 12 100 90 100 100 100 100 100 100 100 100 100 100 100 100 100 100 100 100 100 100
0 0 1 5 5 47 100 100 100 100 94 22 62 18 1 1 4 12 20 100 100 100 100 100 100 100 100 100 100 100 99 76 100 100 100 100 100 100
0 0 0 5 5 13 91 100 100 100 100 12 36 80 100 97 93 62 79 100 100 100 100 100 100 100 100 100 100 100 100 99 100 100 100 100 100 100
0 0 1 4 5 60 97 100 98 100 100 98 29 70 95 98 100 100 100 100 100 100 100 100 100 100 100 100 100 100 100 100 92 100 100 100 100 100
3 5 5 77 86 100 100 86 91 78 98 100 72 70 88 96 54 11 97 100 100 100 100 100 100 100 100 100 100 100 100 100 100 100 100 100 100 100
4 28 43 60 68 55 71 81 74 78 86 88 83 82 68 44 100 100 94 100 100 100 100 100 100 100 100 100 100 100 100 100 100 100 100 100 100 100
0 0 2 3 3 5 7 5 6 19 62 62 66 92 83 95 100 100 100 100 100 100 100 100 100 100 100 100 96 100 100 100 100 100 100 100 100 100
0 0 0 4 4 3 5 5 39 99 100 100 69 49 99 100 100 100 100 100 92 100 100 100 100 98 100 100 100 100 100 100 100 100 100 100 100 100
0 0 0 0 4 5 5 5 19 19 20 100 94 97 100 100 100 100 100 100 100 100 100 100 99 85 99 100 100 100 100 100 100 100 100 100 100 100
5 0 5 5 5 15 40 98 90 5 5 9 100 100 98 99 100 100 100 100 100 100 100 100 100 100 100 100 100 100 100 100 100 100 100 100 100 100
5 5 34 8 20 95 99 92 5 5 5 94 98 100 100 100 100 100 100 100 100 100 100 100 100 100 100 100 100 100 100 100 100 100 100 100 100 100
74 90 5 13 98 100 100 100 100 99 100 87 44 100 100 100 100 100 100 100 100 100 99 100 100 100 100 100 100 100 100 100 100 100 100 100 100 100
100 31 5 45 100 96 100 100 100 99 86 100 99 100 100 100 100 100 100 100 100 100 100 100 100 100 100 100 100 100 100 100 100 100 100 100 100 100
98 86 100 100 100 100 91 100 100 100 100 95 100 100 99 100 100 99 100 100 100 100 100 100 100 100 100 100 100 100 100 100 100 100 100 100 100 100
86 100 100 50 80 5 46 100 100 99 100 100 100 100 96 100 100 93 100 97 100 100 100 100 100 100 100 100 100 100 100 100 100 100 100 100 100 100
100 85 5 5 58 22 63 97 100 92 100 100 100 100 93 100 99 100 100 100 100 100 100 100 100 100 100 100 100 100 100 100 100 100 100 100 100 100
100 8 4 52 86 99 91 98 94 100 100 100 100 100 98 96 100 100 100 100 100 100 100 100 100 100 100 100 100 100 100 100 100 100 100 100 100 100
98 5 36 100 100 100 99 96 100 100 100 100 100 100 100 100 100 100 100 100 100 100 100 100 100 100 100 100 100 100 100 100 100 100 100 100 100 100
16 57 97 100 100 100 97 100 100 100 100 100 100 100 100 100 100 100 100 100 100 100 100 100 100 100 100 100 100 100 100 100 100 100 100 66 81 10
100 100 95 100 100 100 100 100 100 100 100 100 100 100 100 100 100 100 100 100 100 100 100 100 100 100 100 100 100 100 100 100 97 56 11 5 5 5
100 88 94 100 100 100 100 100 100 100 100 100 100 100 100 100 100 100 100 100 100 100 100 100 100 100 100 100 61 69 25 6 5 5 10 26 73 89
91 79 100 100 100 100 100 100 100 100 100 100 100 100 100 100 100 100 100 100 100 100 100 100 100 100 89 70 94 67 68 91 94 99 100 100 99 96
83 100 100 99 100 100 100 100 100 100 100 100 100 100 100 100 100 100 100 100 100 100 100 100 100 85 88 95 89 73 49 62 92 99 100 100 100 100

GFSNE_prec_cloud_006.txt.gz
Cloud_Cover
5 2 4 0 0 0 5 9 98 54 5 0 4 5 5 5 27 99 84 21 100 100 100 100 100 100 100 100 100 100 100 100 98 99 99 100 100 100
0 0 0 0 0 1 5 5 37 100 70 5 0 16 11 100 100 100 100 88 60 95 100 100 100 100 100 100 100 100 100 100 100 99 89 100 100 100
0 0 0 1 44 5 5 5 5 45 96 5 4 5 5 27 90 100 100 100 100 100 100 100 100 74 5 62 91 100 100 100 100 100 100 98 100 100
0 0 1 0 1 1 2 4 5 87 100 35 0 0 3 3 11 100 99 98 100 100 100 100 100 100 99 99 100 100 100 100 100 100 100 100 100 100
5 4 1 0 0 0 0 0 5 97 15 5 5 5 5 3 4 4 5 83 100 100 100 100 100 100 100 100 89 100 100 100 100 100 100 100 100 100
5 89 69 35 0 0 1 4 23 25 38 98 99 45 6 4 5 5 5 5 10 100 100 100 100 100 100 100 100 100 100 100 100 100 100 100 100 100
5 24 99 98 4 5 37 6 32 17 97 100 99 99 100 79 54 5 56 64 100 100 95 90 100 100 98 100 100 100 100 54 92 100 100 100 100 100
1 2 1 8 5 5 5 38 90 100 100 100 100 100 96 6 75 93 100 98 100 100 100 100 100 100 100 100 100 100 93 100 86 100 100 100 100 100
5 1 5 5 74 21 10 91 64 81 53 78 97 75 98 72 100 83 100 100 100 42 100 95 100 100 100 100 100 74 100 91 97 100 100 100 100 100
5 5 27 64 5 100 95 64 98 10 6 95 100 100 99 100 82 68 100 100 100 100 100 100 100 100 100 100 100 100 67 100 99 100 100 100 100 100
5 5 99 16 42 100 100 79 5 14 5 30 98 87 80 10 75 100 100 100 100 100 100 100 100 100 100 100 93 28 89 100 100 100 100 100 100 100
18 72 5 50 100 100 100 100 98 5 32 45 57 16 31 71 86 100 100 100 100 100 62 99 100 100 100 100 100 100 100 100 100 100 100 100 100 100
99 18 5 61 100 100 100 81 99 100 79 58 76 85 89 100 100 100 100 100 100 100 96 100 100 100 100 100 100 100 100 100 100 100 100 100 100 100
62 5 37 100 100 14 5 96 100 99 12 78 100 98 100 100 100 100 100 100 100 100 77 100 100 100 100 100 100 100 100 100 100 100 100 100 100 100
44 70 97 94 6 5 16 67 76 63 97 100 100 100 100 100 100 100 99 80 96 95 99 98 100 100 100 100 100 100 100 100 100 100 100 100 100 100
77 100 50 5 5 20 22 47 82 100 100 100 100 100 100 97 100 83 100 75 100 100 100 100 100 100 100 100 100 100 100 100 100 100 100 100 100 100
100 71 5 7 79 97 97 100 96 100 100 100 100 100 100 100 92 97 100 100 100 100 100 100 100 100 100 100 100 100 100 100 100 100 100 100 100 100
35 12 63 97 100 100 100 100 100 100 100 100 100 100 100 100 100 100 100 100 100 100 100 100 100 100 100 100 100 100 100 100 100 100 100 100 100 100
5 98 86 100 100 100 100 100 100 100 100 100 100 100 100 100 100 100 100 100 100 100 100 100 100 100 100 100 100 100 100 100 100 100 100 100 100 100
78 98 98 100 100 100 100 100 100 100 100 100 100 100 100 100 100 100 100 100 100 100 100 100 100 100 100 100 100 100 100 100 100 100 100 100 100 100
95 100 100 100 100 100 100 100 100 100 100 100 100 100 100 100 100 100 100 100 100 100 100 100 100 100 100 100 100 100 100 100 100 100 100 100 100 100
100 100 100 100 100 100 100 100 100 100 100 100 100 100 100 100 100 100 100 100 100 100 100 100 100 100 100 100 100 100 100 100 100 100 100 100 95 95
100 100 100 100 100 100 100 100 100 100 100 100 100 100 100 100 100 100 100 100 100 100 100 100 100 100 100 100 100 100 100 100 99 87 81 71 86 100

GFSNE_prec_cloud_009.txt.gz
Cloud_Cover
0 0 0 0 2 5 51 67 75 48 4 0 0 1 56 42 9 88 100 100 100 100 100 100 100 100 100 99 34 99 98 98 100 100 100 100 100 100
0 0 0 1 5 4 1 4 11 39 31 0 0 4 56 2 1 0 0 9 66 83 100 100 100 100 90 99 100 56 45 76 100 89 100 100 100 100
0 0 5 4 0 0 0 0 5 11 37 0 5 10 11 0 3 5 3 0 0 2 15 100 100 100 100 82 93 100 100 86 58 75 100 100 100 100
0 3 3 0 0 0 0 3 5 43 72 94 24 5 5 24 5 5 5 5 4 0 0 0 81 100 100 100 100 96 85 78 90 100 100 100 100 100
0 0 0 0 0 1 5 5 81 80 9 5 5 5 5 30 5 5 5 5 5 5 5 5 33 47 100 100 100 100 100 100 76 44 86 100 100 100
0 0 0 5 5 5 5 58 85 5 5 6 62 5 5 5 5 5 5 5 5 24 62 29 0 3 52 94 46 100 100 100 100 99 100 100 100 100
4 4 4 5 5 55 98 84 83 82 8 37 37 92 50 5 5 39 94 89 69 95 43 38 7 10 69 100 100 100 100 98 100 100 88 100 100 100
5 5 5 5 18 94 95 100 100 100 100 100 46 98 47 5 62 91 99 100 100 7 93 98 99 54 5 23 100 100 100 100 100 70 69 36 100 100
32 5 5 38 69 86 15 75 87 39 16 86 100 100 36 5 98 100 99 92 100 100 100 99 91 100 100 100 100 100 97 100 99 93 100 98 98 100
65 5 88 68 88 78 89 100 11 0 4 78 100 84 91 69 84 100 98 98 98 100 100 100 87 48 99 100 75 60 46 51 79 100 100 98 100 100
16 97 100 36 82 100 100 34 5 5 5 89 100 100 97 97 100 100 97 100 65 77 100 100 100 100 100 100 100 100 81 48 96 100 100 100 100 100
83 80 19 91 100 100 100 98 41 7 99 30 5 5 30 16 100 100 100 100 100 100 100 100 92 100 100 98 100 100 100 100 98 100 100 100 100 100
94 40 25 26 100 100 100 43 46 100 79 6 26 91 72 79 93 100 100 100 100 100 100 100 99 100 100 90 100 100 100 100 100 100 100 100 100 100
78 51 56 99 100 100 33 93 100 96 27 98 99 100 100 97 100 100 100 100 100 100 98 100 100 96 100 100 98 100 100 100 100 100 100 100 100 100
92 100 94 6 93 33 38 89 79 76 100 99 100 100 100 100 100 98 88 100 99 100 100 100 100 100 100 100 99 100 100 100 100 100 100 100 100 100
88 22 5 5 99 82 7 21 95 100 100 100 100 100 100 100 100 100 100 100 100 100 100 100 100 100 100 100 100 100 100 100 100 100 100 100 100 100
100 5 6 92 57 14 15 97 100 100 100 100 100 100 100 100 100 96 100 100 100 100 100 100 100 100 100 100 100 100 100 100 100 100 100 100 100 100
83 5 68 92 99 95 100 100 100 100 100 100 100 100 100 100 100 100 100 100 100 100 100 100 100 100 100 100 100 100 100 100 100 100 100 100 100 100
87 90 100 99 100 100 100 100 100 100 100 100 100 100 100 100 100 100 100 100 100 100 100 100 100 100 100 100 100 100 100 100 100 100 100 100 100 100
100 100 100 100 100 100 100 100 100 100 100 100 100 100 100 100 100 100 100 100 100 100 100 100 100 100 100 100 100 100 100 100 100 100 100 100 100 100
100 100 100 100 100 100 100 100 100 100 100 100 100 100 100 100 100 100 100 100 100 100 100 100 100 100 100 100 100 100 100 100 100 100 100 100 100 100
100 100 100 100 100 100 100 100 100 100 100 100 100 100 100 100 100 100 100 100 100 100 100 100 100 100 100 100 100 100 100 100 100 100 100 100 100 100
100 100 100 100 100 100 100 100 100 100 100 100 100 100 100 100 100 100 100 100 100 100 100 100 100 99 99 100 100 100 100 100 100 100 100 100 100 100

GFSNE_prec_cloud_012.txt.gz
Cloud_Cover
5 1 0 0 0 0 5 4 5 6 5 0 0 0 0 0 2 88 99 5 5 41 99 99 100 92 100 100 100 37 100 100 100 100 100 100 100 100
1 0 0 0 1 0 0 0 1 15 25 0 0 0 0 5 8 78 10 2 5 14 100 100 100 100 92 73 16 94 100 16 97 100 100 100 100 100
0 0 0 0 2 0 0 0 5 18 99 1 47 1 5 5 5 7 5 5 5 28 9 66 54 5 5 5 92 12 59 91 100 53 100 100 100 100
0 0 0 0 0 1 5 5 8 88 100 100 30 73 50 68 99 93 42 14 5 51 36 5 5 5 5 0 18 34 99 100 93 97 99 55 100 87
0 0 0 4 5 5 23 61 84 87 74 33 5 5 5 5 30 21 80 26 7 77 5 5 41 39 5 14 2 0 21 19 18 100 100 100 100 100
0 5 5 17 29 38 57 94 89 69 15 29 29 5 5 3 5 5 5 5 8 5 5 55 21 75 13 5 5 4 64 98 64 100 100 87 99 65
5 5 6 69 57 84 96 97 80 13 36 60 68 24 5 4 8 5 58 5 5 5 10 40 59 22 14 5 5 12 85 100 100 100 82 100 100 69
5 13 63 67 80 99 100 100 100 99 100 99 96 81 5 10 16 5 52 86 87 2 100 37 5 5 5 5 31 58 71 100 100 100 100 95 100 100
60 73 51 86 99 100 82 100 100 100 97 100 100 82 5 45 86 83 100 46 26 5 29 18 11 16 5 5 50 69 100 100 100 100 100 100 98 98
93 98 100 100 100 100 40 80 100 100 100 100 89 81 93 95 100 97 91 86 84 74 100 100 100 100 59 94 100 100 100 100 98 47 52 100 100 100
94 100 100 100 100 100 100 100 89 84 16 89 100 100 33 89 100 100 93 100 100 100 100 100 90 90 100 100 100 100 100 96 100 90 67 100 100 100
98 100 100 100 100 100 98 96 100 5 46 56 46 5 81 98 100 100 100 100 100 100 100 100 96 99 100 100 100 100 100 74 93 99 96 97 100 100
92 84 93 100 100 100 100 100 100 100 73 92 83 87 91 98 100 100 100 100 100 100 100 100 100 100 97 100 100 99 100 100 100 100 100 100 100 100
79 73 100 100 100 100 100 100 100 100 85 97 100 97 100 100 100 100 98 100 100 100 100 100 100 99 100 90 100 94 100 100 100 100 100 100 100 100
100 100 100 100 100 100 100 100 100 100 100 100 100 98 94 90 95 91 99 98 100 100 100 100 100 99 100 100 94 100 100 100 100 100 100 100 100 100
100 96 65 100 100 100 100 74 82 99 100 100 100 100 100 100 100 100 100 100 100 100 100 100 100 100 100 99 100 100 100 100 100 100 100 100 100 100
100 16 98 100 97 92 81 91 85 96 100 100 100 100 100 100 100 100 100 100 100 100 100 100 100 100 100 100 100 100 100 100 100 100 100 100 100 100
100 100 100 97 100 95 95 98 100 100 100 100 100 100 100 100 100 100 100 100 100 100 100 100 100 100 100 100 100 100 100 100 100 100 100 100 100 100
100 100 100 100 100 98 99 100 100 100 100 100 100 100 100 100 100 100 100 100 100 100 100 100 100 100 100 100 100 100 100 100 100 100 100 100 100 100
100 100 100 100 100 100 100 100 100 100 100 100 100 100 100 100 100 100 100 100 100 100 100 100 100 100 100 100 100 100 100 100 100 100 100 100 100 100
100 100 100 100 100 100 100 100 100 100 100 100 100 100 100 100 100 100 100 100 100 100 100 100 100 100 100 100 100 100 100 100 100 100 100 100 100 100
100 100 100 100 100 100 100 100 100 100 100 100 100 100 100 100 100 100 100 100 100 100 100 100 100 100 100 100 100 100 100 100 100 100 100 100 100 100
100 100 100 100 100 100 100 100 100 100 100 100 100 100 100 100 100 100 100 100 100 100 100 100 100 100 100 100 100 100 100 100 100 100 100 100 100 100

GFSNE_prec_cloud_015.txt.gz
Cloud_Cover
0 5 0 0 0 0 0 5 5 0 0 0 0 0 0 0 9 5 8 10 24 69 5 4 5 5 5 5 11 13 5 5 100 100 100 100 100 100
1 0 0 0 0 0 0 3 4 5 5 0 0 0 2 5 5 16 75 29 4 5 5 6 5 5 5 5 74 99 66 5 95 100 100 98 100 100
0 0 0 0 0 0 0 2 5 40 100 1 2 5 5 5 5 5 4 72 5 10 6 7 5 5 5 76 96 100 100 87 22 100 100 100 100 100
0 0 0 0 0 5 5 5 8 5 5 59 5 5 5 5 5 6 5 0 2 2 5 5 96 100 6 11 100 100 79 100 100 88 15 95 100 100
0 0 0 5 5 5 11 5 5 45 75 100 22 5 5 5 8 5 5 4 0 4 95 98 7 29 94 40 81 100 100 44 81 20 70 89 29 78
0 5 5 5 15 5 5 52 88 39 62 100 90 19 86 5 85 46 5 5 2 5 5 5 7 5 12 78 56 100 42 40 5 4 5 99 4 52
5 5 5 62 63 100 100 98 84 83 90 96 79 94 62 5 5 5 5 5 5 75 5 5 5 5 30 24 69 89 95 15 5 57 97 100 100 97
5 5 5 52 83 93 100 100 100 100 100 100 100 100 77 5 5 28 96 100 93 35 44 5 35 18 5 5 40 99 100 100 100 100 92 100 100 100
24 61 15 5 100 37 48 96 100 97 100 100 98 86 53 20 85 98 100 86 61 5 94 75 63 24 96 79 31 70 84 80 100 100 100 34 100 100
62 98 65 54 63 100 100 54 100 69 46 90 100 89 89 83 100 93 86 100 94 53 91 100 100 100 100 100 100 89 100 100 100 100 100 100 100 100
100 100 100 98 97 100 100 93 8 5 26 98 100 100 100 100 100 100 100 100 99 100 100 100 100 100 100 100 100 100 100 100 100 100 100 99 100 100
67 90 92 100 100 100 100 100 95 51 98 29 5 5 24 62 100 100 100 100 100 100 100 94 100 100 100 100 100 100 90 95 86 100 100 100 100 100
97 60 82 100 100 100 100 100 100 100 82 10 32 99 100 100 100 100 100 100 100 100 56 100 100 100 100 100 100 100 93 100 100 100 100 92 99 100
98 67 90 100 100 100 100 100 100 98 10 93 100 100 100 100 100 99 93 95 98 96 100 100 100 99 100 100 100 100 100 100 100 100 100 100 100 100
100 100 98 95 100 74 92 100 100 70 100 100 100 100 100 100 99 97 93 96 89 99 79 88 100 100 100 100 97 100 100 100 100 100 100 100 100 100
99 99 35 98 79 98 97 63 50 100 100 100 100 98 96 99 100 100 100 100 100 100 100 100 100 96 88 92 100 99 100 100 100 100 100 100 100 100
100 59 84 38 85 90 55 97 100 100 100 100 100 100 100 100 100 100 100 100 100 100 100 100 100 91 100 100 98 97 96 100 100 100 100 100 100 100
100 93 99 100 99 99 100 100 100 100 100 100 100 100 100 100 100 100 100 100 100 100 100 100 100 100 100 100 100 100 100 100 100 100 100 100 100 100
100 100 100 100 100 100 100 100 100 100 100 100 100 100 100 100 100 100 100 100 100 100 100 100 100 100 100 100 100 100 100 100 100 100 100 100 100 100
100 100 100 100 100 100 100 100 100 100 100 100 100 100 100 100 100 100 100 100 100 100 100 100 100 100 100 100 100 100 100 100 100 100 100 100 100 100
100 100 100 100 100 100 100 100 100 100 100 100 100 100 100 100 100 100 100 100 100 100 100 100 100 100 100 100 100 100 100 100 100 100 100 100 100 100
100 100 100 100 100 100 100 100 100 100 100 100 100 100 100 100 100 100 100 100 100 100 100 100 100 100 100 100 100 100 100 100 100 100 100 100 100 100
100 100 100 100 100 100 100 100 100 100 100 100 100 100 100 100 100 100 100 100 100 100 100 100 100 100 100 100 100 100 100 100 100 100 100 100 100 100

GFSNE_prec_cloud_018.txt.gz
Cloud_Cover
48 19 5 6 1 0 0 0 2 3 0 0 0 0 5 0 3 100 9 4 5 5 8 73 100 100 100 100 100 90 100 90 99 100 100 53 98 100
17 5 5 2 0 0 0 0 0 5 13 0 4 3 0 3 5 21 5 5 5 24 100 100 87 19 44 48 100 59 98 85 74 79 29 6 96 100
5 0 0 0 0 0 0 3 5 13 99 1 0 0 5 5 0 5 21 16 5 57 100 100 57 5 5 46 94 100 100 100 100 95 100 97 100 100
0 0 0 0 0 0 5 5 5 5 5 47 5 5 5 5 5 5 6 5 56 8 100 65 5 5 100 89 7 6 18 98 100 100 100 99 41 100
0 0 0 0 3 5 5 5 5 24 89 100 51 7 7 5 5 11 72 5 5 5 4 5 100 100 58 54 100 100 42 100 100 100 100 100 100 100
3 0 2 5 45 8 16 66 100 100 86 69 100 98 26 75 100 99 15 5 1 5 5 85 88 5 92 92 75 83 91 98 55 100 95 50 92 100
0 4 5 16 52 90 100 91 100 64 95 100 100 94 98 17 58 91 22 5 5 6 100 10 5 5 5 5 22 12 34 48 84 85 100 100 99 100
5 5 5 33 82 92 99 100 100 100 100 100 91 76 11 7 98 100 95 100 85 91 35 40 97 56 54 29 74 100 100 100 90 93 100 100 100 100
5 5 5 10 27 5 8 100 100 100 100 100 62 40 93 97 95 99 100 100 98 75 94 100 24 93 81 6 81 100 100 64 97 84 100 98 100 100
5 7 58 7 35 100 100 98 98 85 5 70 100 100 100 100 100 100 98 88 99 97 99 100 100 100 100 100 100 100 100 100 100 100 100 100 100 100
14 99 93 56 95 100 100 100 71 34 5 30 100 100 55 100 100 100 100 100 100 100 100 86 100 100 100 100 100 100 100 100 94 94 100 100 100 100
79 89 81 100 100 100 100 100 97 6 74 99 5 0 5 12 99 100 100 100 100 100 100 94 95 94 100 100 100 100 100 100 100 100 100 100 100 100
93 93 68 74 100 100 100 100 100 100 94 6 5 29 92 98 99 100 100 100 100 100 93 100 100 94 100 100 100 100 100 100 100 100 100 100 100 100
98 48 52 100 100 100 100 100 100 100 7 35 98 100 100 96 92 88 100 100 100 100 98 100 100 100 100 100 100 100 100 100 100 100 100 100 93 100
99 83 100 98 100 48 59 100 98 63 90 100 100 96 100 100 89 100 100 100 100 100 100 100 100 97 85 89 98 100 99 100 100 100 100 100 100 100
91 99 56 47 5 66 16 56 100 99 100 100 100 100 100 100 100 100 100 100 100 100 100 100 87 89 91 100 100 99 100 100 100 100 100 100 100 100
100 29 5 11 68 82 79 99 100 100 100 100 100 100 100 100 100 100 100 100 100 100 100 100 90 70 58 92 100 97 100 100 100 100 100 100 100 100
92 6 68 100 100 100 100 100 100 100 100 100 100 100 100 100 100 100 100 100 100 100 100 100 86 93 81 97 100 100 100 100 100 100 100 100 100 100
14 90 100 100 100 100 100 100 100 100 100 100 100 100 100 100 100 100 100 100 100 100 100 100 100 99 95 100 100 100 100 100 100 100 100 100 100 100
85 100 100 100 100 100 100 100 100 100 100 100 100 100 100 100 100 100 100 100 100 100 100 100 100 100 100 100 100 100 100 100 100 100 100 100 100 100
100 100 100 100 100 100 100 100 100 100 100 100 100 100 100 100 100 100 100 100 100 100 100 100 100 100 100 100 100 100 100 100 100 100 100 100 100 100
100 100 100 100 100 100 100 100 100 100 100 100 100 100 100 100 100 100 100 100 100 100 100 100 100 100 100 100 100 100 100 100 100 100 100 100 100 100
100 100 100 100 100 100 100 100 100 100 100 100 100 100 100 100 100 100 100 100 100 100 100 100 100 100 100 100 100 100 100 100 100 100 100 100 100 100

GFSNE_prec_cloud_021.txt.gz
Cloud_Cover
5 5 5 3 5 5 5 0 0 2 0 0 1 0 5 0 0 5 5 0 5 5 66 100 100 100 100 100 100 100 100 100 100 100 100 100 100 100
10 5 5 5 2 0 0 0 0 3 53 0 0 2 0 0 4 5 2 4 5 5 96 100 100 99 100 100 100 100 90 100 100 100 100 100 100 100
8 5 4 0 0 0 0 2 4 47 22 0 0 0 2 5 0 3 5 50 78 96 100 100 96 98 100 95 95 100 100 100 100 100 100 100 100 94
1 0 0 0 0 0 5 5 5 5 90 63 5 5 5 5 5 5 85 66 73 25 100 100 100 99 13 100 100 100 100 100 100 100 100 100 100 100
0 0 0 0 1 5 5 5 41 95 100 99 59 7 84 26 68 81 14 5 10 62 62 49 83 83 100 100 100 100 100 100 100 100 100 93 92 100
0 0 0 1 5 42 24 93 99 72 5 17 86 74 73 77 47 5 2 5 42 5 5 14 100 99 61 84 97 100 98 100 100 100 100 100 100 100
0 0 0 5 6 83 100 71 96 50 94 100 100 100 31 5 5 5 84 97 26 90 92 82 77 36 5 6 13 45 98 100 100 99 92 68 44 94
0 2 1 5 5 64 96 100 100 100 100 100 100 99 12 29 48 91 100 100 92 78 100 79 100 91 24 5 66 100 100 100 100 100 100 100 100 98
5 5 5 5 21 31 9 85 85 86 100 100 87 62 99 48 96 100 97 100 100 71 98 100 98 100 26 25 99 100 100 100 100 100 100 80 100 99
5 43 72 38 59 100 87 96 91 94 24 18 63 87 100 100 100 100 98 100 100 98 74 100 68 87 100 100 100 100 100 100 100 100 100 100 100 100
5 72 100 54 86 100 100 100 87 8 5 24 100 98 54 79 100 100 100 100 100 100 100 100 51 98 95 100 85 100 100 100 100 100 100 100 100 100
5 11 60 87 100 100 100 100 75 5 82 100 6 53 100 100 100 100 100 100 100 97 96 100 95 90 100 100 59 100 92 100 100 100 100 100 100 100
58 82 19 23 100 100 100 86 82 100 76 47 65 92 100 100 100 100 100 100 100 100 100 100 100 94 100 96 100 99 81 100 100 100 100 100 100 100
100 12 32 100 100 100 99 100 100 100 98 93 100 100 100 100 100 100 100 100 100 100 100 100 100 100 100 98 79 65 100 100 100 100 100 100 100 100
93 99 88 79 43 6 62 100 100 74 91 100 100 100 100 100 100 100 100 100 100 100 100 100 100 100 100 100 96 79 100 100 100 100 100 100 100 100
95 90 8 5 40 55 65 94 86 100 100 100 100 100 100 100 100 100 100 100 100 100 100 100 100 100 98 90 88 99 100 100 100 100 100 100 100 100
100 6 6 66 98 93 100 100 100 100 100 100 100 100 100 100 100 100 100 100 100 100 100 100 100 100 78 98 100 100 100 100 100 100 100 100 100 100
83 41 100 100 100 100 100 100 100 100 100 100 100 100 100 100 100 100 100 100 100 100 100 100 100 100 100 100 100 100 100 100 100 100 100 100 100 100
76 100 100 100 100 100 100 100 100 100 100 100 100 100 100 100 100 100 100 100 100 100 100 99 100 100 100 100 100 100 100 100 100 100 100 100 100 100
100 100 100 100 100 100 100 100 99 100 100 100 100 100 100 100 100 100 100 100 100 100 100 100 100 100 100 100 100 100 100 100 100 100 100 100 100 100
100 100 100 100 100 100 100 100 100 100 100 100 100 100 100 100 95 100 100 100 100 100 100 100 100 100 100 100 100 100 100 100 100 100 100 100 100 100
100 100 100 100 100 100 100 100 100 98 99 100 100 100 100 100 100 99 100 100 100 100 100 100 100 100 100 100 100 100 100 100 100 100 100 100 100 100
100 100 100 100 100 100 100 100 100 100 100 100 100 100 100 100 100 100 100 94 100 100 100 100 100 100 100 100 100 100 100 86 100 100 100 100 100 100

GFSNE_prec_cloud_024.txt.gz
Cloud_Cover
5 3 0 0 4 5 3 0 4 5 4 0 5 0 2 0 0 4 5 5 65 61 96 100 100 100 100 100 100 100 100 100 100 100 100 100 100 100
5 3 5 5 5 4 0 0 0 5 5 2 2 5 4 5 5 5 12 95 5 11 100 100 100 100 100 100 100 100 100 100 100 100 100 100 100 100
5 5 3 0 0 0 0 0 1 5 5 4 5 5 5 5 5 35 98 100 82 68 54 100 100 100 100 100 100 100 100 100 100 100 100 100 100 100
5 0 0 0 0 0 0 4 5 5 98 93 5 5 5 2 5 28 43 76 33 5 70 100 100 100 100 100 100 100 100 100 100 99 100 100 100 100
0 0 0 4 1 0 5 5 35 85 76 85 6 5 5 5 85 58 4 0 0 1 32 61 100 100 100 100 100 100 100 100 100 100 100 100 100 100
1 5 1 0 0 17 73 47 99 59 17 81 97 78 27 92 93 5 2 5 2 15 86 46 100 100 100 100 100 100 100 100 100 100 100 97 76 90
4 0 4 5 5 85 100 100 99 97 100 99 60 80 90 6 5 5 5 5 91 97 5 6 44 45 49 46 14 24 99 100 100 100 100 100 100 100
1 5 5 5 6 100 98 100 100 100 94 89 100 26 10 6 7 99 100 100 11 100 88 100 100 72 64 8 66 100 100 100 100 100 100 100 100 100
5 5 5 5 32 5 22 94 19 69 100 62 28 7 94 90 100 100 100 99 97 99 96 98 57 96 5 5 28 93 100 100 100 100 100 100 100 100
0 5 34 5 5 100 99 97 93 26 11 5 94 99 100 100 100 100 100 100 96 90 99 99 17 80 15 5 8 69 100 100 100 100 100 100 100 100
4 27 78 53 36 100 100 81 74 7 3 40 100 80 80 84 100 100 100 100 100 100 100 100 71 89 98 73 5 5 81 100 100 100 100 100 100 100
21 78 84 86 100 100 100 94 45 6 98 94 87 86 98 100 100 100 100 100 100 100 100 100 100 97 100 9 7 68 64 86 100 100 100 100 100 100
61 74 5 49 100 100 100 67 62 100 80 34 99 100 100 100 92 99 100 100 100 100 85 100 100 100 100 86 100 69 86 100 100 100 100 100 100 100
84 45 73 100 100 97 86 100 100 100 92 100 100 100 100 100 100 100 100 100 100 100 100 100 100 100 100 96 97 100 100 100 100 100 100 100 100 100
100 100 99 71 6 5 77 100 95 98 100 100 100 100 100 100 100 100 100 100 100 100 100 100 100 100 100 100 100 99 97 98 100 100 100 100 100 100
74 73 5 5 5 42 60 30 82 100 100 100 100 100 100 100 100 100 100 100 100 100 100 100 100 100 100 100 100 86 87 100 100 100 100 100 100 100
100 5 5 35 90 71 88 93 100 100 100 100 100 100 100 100 100 100 100 100 100 100 100 99 100 100 98 99 99 98 100 100 100 100 100 100 100 100
69 44 99 100 100 100 100 100 100 100 100 100 100 100 100 100 100 100 100 100 100 100 100 100 98 100 100 100 100 100 100 100 100 100 100 100 100 100
88 100 100 100 100 100 100 100 100 100 100 100 100 100 100 100 100 100 100 100 100 100 100 100 100 100 100 99 100 100 100 100 100 100 100 100 100 100
100 100 100 100 100 100 100 100 100 100 99 100 100 100 100 100 100 100 100 100 100 100 100 100 100 100 100 100 100 100 100 100 100 100 100 100 100 100
100 100 100 100 100 100 100 100 100 100 100 100 100 100 100 100 96 100 100 100 100 100 100 100 100 100 100 100 100 100 100 100 100 100 100 100 100 100
100 100 100 100 100 100 100 100 100 100 100 100 100 100 100 100 100 100 100 100 100 100 100 100 100 100 100 100 100 100 100 100 100 100 100 100 100 100
100 100 100 100 100 100 100 100 100 100 100 100 100 100 100 100 100 100 100 100 100 100 100 100 100 100 100 93 99 96 100 100 100 100 100 100 100 100

GFSNE_prec_cloud_027.txt.gz
Cloud_Cover
5 5 5 5 5 2 0 0 5 29 4 0 1 3 5 5 5 5 5 2 41 100 100 100 100 98 99 100 100 100 100 100 100 100 100 100 100 100
5 5 5 2 0 0 0 0 0 5 76 4 5 5 5 5 5 5 4 24 5 76 100 100 100 100 100 100 100 100 100 100 100 100 100 100 100 100
10 5 4 0 0 0 0 0 5 5 39 5 5 5 5 2 1 5 30 96 85 96 95 89 100 100 100 100 100 100 100 100 100 100 100 100 100 100
5 5 0 0 4 0 0 4 5 5 57 89 7 5 4 4 5 44 100 100 100 95 5 100 100 100 100 100 100 100 100 100 100 100 100 100 100 100
4 2 0 0 1 5 5 5 12 88 100 96 62 5 8 51 72 97 68 86 3 2 5 11 100 100 100 100 100 100 100 100 100 100 100 100 100 100
0 0 0 1 5 5 34 66 99 63 60 97 99 98 91 98 79 21 4 5 5 5 18 67 97 83 98 100 100 100 100 100 100 100 100 100 100 100
0 0 0 2 5 58 100 75 79 89 100 99 99 100 82 11 5 5 29 62 84 90 89 26 11 74 62 11 14 41 86 100 100 100 100 100 100 100
0 0 0 0 5 36 61 100 100 100 100 100 93 12 5 5 6 99 100 100 97 94 100 86 48 59 5 5 8 100 100 100 100 100 100 100 100 100
0 0 0 5 5 5 6 51 100 100 97 76 5 14 96 75 100 100 100 100 100 99 100 100 48 76 57 59 5 82 100 100 100 100 100 100 100 100
0 3 5 5 14 100 79 97 8 5 5 5 99 86 100 100 100 100 100 100 100 100 100 100 74 100 100 96 98 81 85 100 100 100 100 100 100 100
5 91 78 94 83 100 100 77 77 4 2 34 97 84 46 66 100 100 97 100 100 100 100 100 98 100 100 100 100 95 78 100 100 100 100 100 100 100
73 6 92 97 100 100 100 97 42 7 97 91 57 88 88 100 100 100 100 100 100 100 92 100 95 96 100 62 98 68 5 45 100 100 100 100 100 100
17 39 5 67 100 100 100 58 48 100 75 22 88 99 98 82 89 100 100 100 100 100 84 100 100 100 100 87 92 98 95 88 93 100 100 100 100 100
72 5 45 98 100 79 51 99 100 99 60 98 100 100 100 100 100 100 100 100 100 100 90 100 100 100 100 99 96 99 100 100 94 100 100 100 100 100
72 96 95 67 6 5 52 100 91 99 97 100 100 100 100 100 100 100 99 100 100 100 94 93 100 100 100 100 99 88 100 100 100 100 100 100 100 100
100 56 5 5 5 6 14 66 63 100 100 100 100 100 100 100 100 100 100 100 100 100 100 100 100 100 100 100 100 100 100 100 100 100 100 100 100 100
100 9 5 16 70 71 66 92 100 100 100 100 100 100 100 100 100 98 100 100 100 100 80 95 99 100 99 100 100 100 100 100 100 100 100 100 100 100
56 25 95 100 100 100 100 100 99 100 100 100 100 100 100 100 100 99 100 100 100 96 100 82 100 100 100 100 100 100 100 100 100 100 100 100 100 100
73 100 100 100 100 100 100 100 100 100 100 100 100 100 100 100 100 100 100 100 99 100 99 93 100 100 100 88 100 100 100 100 100 100 100 100 100 100
100 100 100 100 100 100 100 100 100 100 99 100 100 100 100 100 100 100 100 100 100 91 100 100 95 99 100 100 100 100 100 100 100 100 100 100 100 100
100 100 100 100 100 100 100 100 100 100 100 100 100 100 100 100 86 99 100 97 100 100 100 100 94 100 100 100 100 100 100 100 100 100 100 100 100 100
100 100 100 100 100 100 100 100 100 100 98 100 99 100 100 100 100 100 99 100 100 100 100 100 100 90 100 99 100 100 100 100 100 100 100 100 100 100
100 100 100 100 100 100 100 100 100 100 100 100 100 100 100 98 100 100 98 100 100 92 100 100 100 97 100 88 97 87 100 100 100 100 100 100 100 100

GFSNE_prec_cloud_030.txt.gz
Cloud_Cover
4 2 5 5 5 5 3 2 3 5 1 0 0 0 0 5 5 5 5 5 86 100 98 94 100 100 100 100 100 100 100 100 100 100 100 100 100 100
5 5 5 5 2 0 0 1 4 5 54 2 5 5 5 5 5 5 5 16 5 50 100 100 96 100 100 100 100 100 100 100 100 100 100 100 100 100
5 5 0 0 0 0 0 4 4 5 29 5 5 5 5 5 5 5 72 88 36 20 6 89 100 100 100 100 100 100 100 100 100 100 100 100 100 100
5 3 0 0 0 0 0 5 5 5 92 82 5 5 5 5 6 96 98 82 9 5 80 100 100 100 100 100 100 100 100 100 100 100 100 100 100 100
4 0 0 0 0 0 3 5 12 76 97 92 42 36 11 93 84 20 5 5 3 5 18 18 100 100 100 100 100 100 100 100 100 100 100 100 100 100
5 5 3 0 0 5 59 84 100 78 6 75 100 96 99 10 14 4 5 5 7 49 39 64 98 72 77 100 100 100 100 100 100 100 100 100 100 100
5 4 0 0 5 36 100 98 100 16 100 100 100 97 40 5 5 5 91 86 90 99 9 79 32 5 69 5 5 18 82 100 100 100 100 100 100 100
1 2 5 5 5 14 30 100 100 100 99 90 47 98 14 5 7 100 100 100 99 92 100 100 88 88 33 39 16 100 100 100 100 100 100 100 100 100
5 5 5 5 5 5 5 62 100 81 23 50 7 8 79 87 100 100 100 100 100 97 100 100 24 100 37 56 66 100 100 100 100 100 100 100 100 100
77 34 5 5 5 100 41 100 17 5 5 5 58 88 100 100 100 100 100 100 100 72 100 99 83 43 34 80 100 100 100 100 100 100 100 100 100 100
59 6 8 36 81 100 100 82 38 5 2 15 98 80 13 64 99 100 96 100 100 100 89 99 96 93 98 100 44 28 100 100 100 100 100 100 100 100
63 11 6 97 100 100 100 99 68 4 78 95 5 5 5 29 83 97 100 100 100 100 71 100 94 94 100 95 87 100 94 100 100 100 100 100 100 100
34 24 5 74 100 100 100 64 33 100 79 6 27 29 73 89 59 100 100 100 100 100 87 100 99 100 100 94 100 100 94 90 87 100 100 100 100 100
74 26 68 100 100 85 31 92 100 97 7 89 100 100 100 97 92 100 98 95 100 100 87 100 99 100 100 98 95 96 100 100 100 100 100 100 100 100
70 96 91 76 7 5 33 100 90 18 100 100 100 100 100 100 100 99 55 65 100 100 79 98 100 100 100 100 99 93 100 100 100 100 97 100 100 100
78 72 5 5 5 5 12 5 5 89 100 100 100 100 100 100 100 95 100 97 100 100 100 100 100 100 98 100 100 100 100 100 100 100 100 100 100 100
100 5 5 10 64 44 27 38 70 100 100 100 100 100 100 100 97 97 100 98 100 100 100 100 100 100 100 80 100 100 100 100 100 100 100 100 100 100
70 6 89 100 100 100 100 100 99 100 100 100 100 100 100 100 100 87 100 100 100 99 100 100 95 100 100 99 99 100 100 100 100 100 100 100 100 100
31 99 100 100 100 100 100 100 100 100 100 100 100 100 100 100 100 100 100 100 100 100 100 97 100 100 96 93 87 100 100 100 100 100 100 100 100 100
100 100 100 100 100 100 100 100 100 100 100 100 100 100 100 100 100 98 99 100 99 100 100 85 100 100 100 100 100 100 100 100 100 100 100 100 100 100
100 100 100 100 100 100 100 100 100 100 100 100 100 100 100 100 90 98 100 98 99 98 100 98 100 100 100 90 96 100 100 100 100 100 100 100 100 100
100 100 100 100 100 100 100 100 100 100 100 100 100 100 100 100 100 100 98 100 92 100 100 100 100 100 100 91 95 100 100 100 100 100 100 100 100 100
100 100 100 100 100 100 100 100 100 100 100 100 100 100 100 98 97 100 100 100 100 100 100 100 100 100 92 90 100 100 100 100 100 100 100 100 100 100

GFSNE_prec_cloud_033.txt.gz
Cloud_Cover
3 1 0 0 0 0 0 0 0 2 0 0 0 1 5 8 5 5 12 51 64 78 99 100 100 100 100 100 100 100 100 100 100 100 100 100 100 100
5 0 0 0 0 0 0 0 1 5 12 0 0 5 34 22 5 68 52 92 62 92 100 100 100 100 100 100 100 100 100 100 100 100 100 100 100 100
0 0 0 0 0 0 0 0 5 5 5 4 5 5 26 37 90 100 100 98 59 17 73 79 100 100 100 100 100 100 100 100 100 100 100 100 100 100
0 0 0 0 0 0 0 0 5 5 30 56 10 33 6 66 96 100 93 7 44 6 10 99 100 100 100 100 100 100 100 100 100 100 100 100 100 100
0 2 0 4 4 0 1 5 5 67 96 100 12 5 79 96 82 5 5 5 23 31 5 98 100 100 100 100 100 100 100 100 100 100 100 100 100 100
5 5 3 0 0 5 55 85 100 99 85 92 68 100 53 5 5 5 31 5 99 75 10 98 100 99 100 100 100 100 100 100 100 100 100 100 100 100
5 2 0 4 5 25 100 100 100 94 76 99 100 67 14 5 12 18 98 94 84 100 10 67 66 20 18 55 67 96 100 100 100 100 100 100 100 100
0 5 5 5 5 91 89 100 100 100 100 100 90 80 6 86 14 100 100 100 99 72 100 100 56 18 5 5 32 100 100 100 100 100 100 100 100 100
5 5 4 5 5 5 10 98 94 100 68 59 66 37 96 37 100 100 100 100 100 84 96 98 5 32 9 62 96 100 100 100 100 100 100 100 100 100
4 1 5 5 17 100 100 88 49 15 50 27 76 79 100 100 100 99 96 100 98 31 98 99 19 72 96 97 100 100 94 100 100 100 100 100 100 100
4 5 6 91 100 100 98 62 98 78 3 5 91 98 41 45 98 100 89 100 100 58 5 100 82 97 100 100 97 91 80 100 100 100 100 100 100 100
86 89 46 100 100 100 100 98 90 5 59 99 47 5 5 6 89 100 100 100 100 100 25 100 96 96 100 93 73 95 100 100 100 100 100 100 100 100
99 87 86 82 100 100 100 96 85 100 98 8 9 20 66 99 70 84 100 100 100 100 66 100 100 100 100 87 54 70 89 66 100 100 100 100 100 100
99 64 45 100 98 78 32 82 100 100 17 93 98 96 99 88 79 90 100 100 100 100 75 100 98 100 100 94 96 92 100 100 100 100 100 100 100 100
61 99 97 74 7 5 16 98 95 74 100 98 100 100 100 100 100 100 100 88 100 100 95 99 100 99 100 100 99 63 98 100 100 100 100 100 100 100
75 88 5 4 5 5 8 7 65 97 100 100 100 100 100 100 100 100 100 100 100 41 100 98 100 100 100 90 100 83 100 100 100 100 100 100 100 100
100 29 5 6 27 12 32 69 97 98 99 100 100 100 100 100 95 94 100 100 100 99 99 100 100 96 87 93 99 100 100 100 100 100 100 100 100 100
85 8 49 97 98 98 100 99 100 100 100 100 100 100 100 100 100 98 100 100 100 100 98 100 100 100 100 100 62 100 100 100 100 100 100 100 100 100
65 98 100 100 100 100 100 100 100 100 100 100 100 100 100 100 100 100 100 100 100 100 96 100 100 100 100 98 76 100 100 99 100 100 100 100 100 100
100 100 100 100 100 100 100 100 100 100 100 100 100 100 100 100 100 100 100 100 100 97 88 100 100 90 100 100 100 100 100 100 100 100 100 100 100 100
100 100 100 100 100 100 100 100 100 100 100 100 100 100 100 100 94 100 100 100 100 99 98 100 99 50 93 74 100 100 100 100 100 100 100 100 100 100
100 100 100 100 100 100 100 100 100 100 100 100 100 100 100 100 100 100 100 100 99 100 100 100 100 67 61 79 92 100 97 93 100 100 100 100 100 100
100 100 100 100 100 100 100 100 100 100 100 100 100 100 100 100 100 100 100 100 100 100 100 100 100 32 23 50 84 100 95 100 100 100 98 100 100 100

GFSNE_prec_cloud_036.txt.gz
Cloud_Cover
72 31 5 5 5 0 0 0 0 0 0 0 0 0 0 3 5 8 42 96 98 74 100 100 100 100 100 100 100 100 100 100 100 100 100 100 100 100
5 5 5 5 3 0 0 0 0 0 0 0 0 0 5 9 34 79 97 93 86 100 100 100 100 100 100 100 100 100 100 100 100 100 100 100 100 100
5 5 5 5 0 0 0 0 0 0 0 0 0 5 44 97 90 100 98 90 5 31 62 96 100 100 100 100 100 100 100 100 100 100 100 100 100 100
5 5 4 0 0 0 0 0 0 5 5 5 5 25 91 98 100 100 100 9 13 8 8 93 100 100 100 100 100 100 100 100 100 100 100 100 100 100
5 2 0 0 0 0 0 5 14 54 86 97 29 47 75 97 100 24 72 56 96 100 63 84 88 90 100 100 100 100 100 100 100 100 100 100 100 100
2 0 0 0 0 5 5 47 83 100 100 98 81 21 94 61 43 39 85 69 99 98 5 97 63 96 100 88 99 100 100 100 100 100 100 100 100 100
5 4 0 0 5 6 66 91 100 100 86 77 89 98 9 22 43 90 96 99 79 100 7 84 7 5 5 14 61 99 100 100 100 100 100 100 100 100
4 0 0 5 5 64 97 100 100 100 99 100 98 94 100 82 98 100 98 100 96 74 100 100 9 5 5 5 55 100 100 100 100 100 100 100 100 100
0 1 3 5 66 92 100 100 100 100 100 100 97 100 100 99 100 97 88 86 98 21 95 98 29 37 5 29 5 89 100 100 100 100 100 100 100 100
2 5 5 59 87 100 100 99 100 99 100 100 100 100 100 100 100 100 100 100 100 72 100 98 5 37 5 70 97 100 100 100 100 100 100 100 100 100
5 16 71 86 100 100 98 96 97 100 98 82 91 100 100 96 100 100 78 100 98 93 8 98 97 91 95 98 89 93 52 85 93 98 100 100 100 100
5 56 82 99 100 100 100 100 84 82 52 51 100 80 92 91 100 100 100 100 100 100 18 100 92 99 100 97 76 5 5 95 95 78 100 100 100 100
72 72 96 100 100 100 100 97 98 100 98 100 100 96 100 99 98 97 100 100 100 100 15 100 100 99 100 94 93 13 5 58 100 100 100 100 100 100
92 100 99 100 100 72 41 33 99 100 100 100 99 97 99 93 87 85 88 100 100 100 80 93 100 100 100 97 99 42 100 100 94 63 95 99 100 100
100 100 100 100 43 5 8 94 100 99 100 100 100 98 99 86 97 100 92 100 99 98 78 86 100 100 100 100 100 100 100 100 100 100 100 100 100 100
100 84 87 44 5 10 9 59 95 98 100 100 100 100 100 100 100 100 100 100 100 57 62 72 88 99 100 100 100 100 90 100 82 92 100 100 100 100
99 82 26 8 59 25 68 98 97 100 100 100 100 100 100 100 100 100 100 100 100 100 92 58 77 100 93 99 100 49 47 90 100 100 100 100 100 100
94 25 51 98 97 99 98 99 99 100 100 100 100 100 100 100 100 70 100 100 100 100 100 77 90 100 99 100 81 63 98 99 100 100 100 100 95 100
76 97 100 100 100 100 100 100 100 100 100 100 100 100 100 95 100 100 100 100 100 99 90 98 100 100 99 91 7 95 100 100 100 100 100 100 100 100
100 100 100 100 100 100 100 100 98 100 100 100 100 100 100 100 100 100 100 100 100 91 98 82 100 100 100 100 100 100 100 100 100 100 100 100 100 100
100 100 100 100 100 100 100 100 100 100 100 100 100 100 100 100 100 100 100 99 100 100 99 100 100 96 93 100 100 92 97 100 100 100 100 100 100 100
100 100 100 100 100 100 100 100 100 100 100 100 100 100 100 100 100 100 100 100 100 100 100 100 100 82 98 100 100 96 96 100 100 100 100 100 100 100
100 100 100 100 100 100 100 100 100 100 100 100 100 100 100 100 100 100 100 100 100 100 100 100 100 63 82 100 100 100 71 100 100 100 100 100 100 100

GFSNE_prec_cloud_039.txt.gz
Cloud_Cover
5 5 5 5 5 1 0 0 0 4 5 4 0 0 0 0 0 2 0 1 7 12 87 100 100 100 100 100 100 100 100 100 100 100 100 100 100 100
5 5 5 5 5 5 5 4 2 0 0 0 0 0 0 3 1 5 5 5 5 9 82 100 100 100 100 100 100 100 100 100 100 100 100 100 100 100
5 5 5 5 5 5 4 0 0 0 0 0 0 3 5 5 5 5 5 5 4 12 44 83 100 100 100 100 100 100 100 100 100 100 100 100 100 100
5 5 5 5 0 0 0 0 0 0 4 5 5 5 5 25 6 73 20 5 5 5 21 100 100 100 100 100 100 100 100 100 100 100 100 100 100 100
5 5 5 0 0 0 0 0 3 5 5 5 5 5 9 68 65 56 5 5 5 5 15 11 95 51 100 100 100 100 100 100 100 100 100 100 100 100
5 5 1 5 0 0 1 5 5 5 6 39 5 5 38 68 90 32 5 5 5 5 5 5 37 53 55 24 88 98 100 100 100 100 100 100 100 100
5 5 5 4 0 4 33 22 28 88 31 13 90 99 100 32 7 24 53 58 5 44 49 1 29 5 5 5 5 36 100 100 100 100 100 100 100 100
5 5 3 0 0 9 68 94 98 100 97 100 93 98 68 6 36 69 57 100 98 76 100 63 5 7 5 5 8 96 100 100 100 100 100 100 100 100
5 2 0 4 5 6 53 86 90 84 99 100 100 98 73 9 15 37 100 99 100 38 70 83 8 36 24 5 5 82 89 50 73 100 100 100 100 100
1 0 5 5 9 72 75 26 86 89 76 97 100 83 5 82 100 100 100 40 50 39 96 96 18 17 90 5 74 100 100 95 94 100 100 100 100 100
0 0 5 25 40 98 100 100 88 16 5 75 66 84 100 100 100 100 62 91 89 73 65 100 26 46 37 6 100 100 100 8 12 75 100 100 100 100
1 4 5 48 98 100 100 93 31 5 5 25 6 6 44 5 98 99 99 100 100 100 5 99 86 100 85 46 98 100 19 5 5 41 46 90 100 100
5 5 5 85 99 100 100 76 22 100 68 57 8 5 5 28 91 100 100 100 100 99 39 100 100 99 100 79 100 100 36 5 5 14 66 100 100 100
8 6 93 99 100 99 76 67 99 100 76 85 81 80 95 99 100 100 100 100 100 100 91 100 100 99 100 99 100 84 5 5 70 47 87 100 100 100
90 94 100 100 92 34 19 98 100 84 100 92 99 99 84 83 93 94 81 100 100 68 85 93 100 100 100 100 100 100 100 100 99 71 98 68 97 100
82 44 76 66 39 5 12 7 5 64 99 85 71 67 85 100 99 99 100 95 99 28 38 77 98 100 100 97 100 100 100 100 84 96 100 93 63 100
100 10 5 5 5 5 5 5 5 59 78 92 99 99 100 100 100 100 100 100 100 100 90 70 92 98 93 99 100 100 94 80 92 100 100 100 90 100
72 5 5 5 5 5 44 72 86 99 100 98 100 100 100 100 100 93 97 100 100 100 100 100 100 98 43 100 100 92 29 47 98 82 100 100 100 100
39 5 41 82 80 93 100 100 100 100 100 100 100 100 100 100 100 100 100 100 100 100 100 100 100 100 100 100 100 100 100 92 90 100 100 100 100 100
42 68 67 93 89 100 100 100 100 100 100 100 100 100 100 100 100 100 100 100 100 96 96 99 100 100 100 100 100 80 100 91 100 100 95 100 100 100
66 30 74 100 99 95 100 100 100 100 100 100 100 100 100 100 93 100 100 99 100 100 100 99 100 100 100 100 100 92 100 100 100 100 100 100 100 100
83 99 100 89 98 100 100 100 100 100 100 100 100 100 100 100 100 100 100 100 100 100 100 100 100 87 100 100 100 98 100 100 100 100 100 100 100 100
86 87 96 100 100 100 100 100 100 100 100 100 100 100 100 100 100 100 100 100 100 100 100 100 92 98 100 100 100 100 91 72 99 100 100 100 100 100

GFSNE_prec_cloud_042.txt.gz
Cloud_Cover
100 100 14 13 5 5 5 2 0 0 2 5 2 4 0 0 0 0 0 0 5 5 5 9 85 92 100 100 100 100 100 100 100 100 100 100 99 100
100 100 58 6 5 5 5 0 0 0 0 0 0 0 0 0 2 0 0 1 1 5 5 60 74 100 100 100 100 100 100 100 100 100 100 100 100 100
100 89 62 5 5 5 3 0 0 0 0 0 0 1 5 5 1 5 0 0 5 5 36 100 100 100 100 100 100 100 100 100 100 100 100 100 100 100
100 60 6 5 5 5 4 0 0 0 0 5 5 5 5 5 1 5 5 5 2 4 91 100 98 100 100 100 100 100 100 100 100 100 100 100 100 100
100 83 35 5 5 5 3 0 0 0 3 5 5 5 2 3 5 5 5 5 5 4 5 5 10 41 92 100 100 100 100 100 100 100 100 100 100 100
100 100 67 9 5 3 0 0 4 5 5 5 5 19 92 81 22 44 8 5 5 1 0 5 78 5 5 5 6 44 100 100 100 100 100 100 100 100
100 100 59 5 4 2 5 5 35 88 17 90 94 100 100 95 81 40 28 5 3 5 58 5 5 5 5 4 5 5 98 100 100 100 100 100 100 100
100 100 11 5 5 2 5 51 86 97 100 100 89 100 80 59 100 92 5 5 79 37 82 5 5 5 5 5 5 79 99 100 100 100 100 100 100 100
100 98 64 7 4 1 5 63 43 52 73 100 100 81 67 51 100 7 17 100 100 51 92 56 5 5 5 5 8 49 89 98 99 100 100 100 100 100
100 66 6 5 4 25 19 96 92 10 5 64 100 97 100 75 100 100 100 95 30 26 87 99 5 12 5 5 5 5 86 100 100 97 100 100 100 100
90 16 5 2 5 85 96 58 5 5 5 5 44 99 100 100 100 100 61 100 98 97 94 100 11 49 70 5 2 5 96 100 83 83 97 100 100 100
5 1 4 21 72 99 100 100 96 52 5 27 5 5 5 5 15 43 90 100 100 100 5 100 87 95 100 5 5 22 62 99 51 5 69 71 100 100
5 5 5 15 98 100 100 93 61 100 83 7 5 5 5 5 5 11 88 100 100 98 73 100 100 97 100 82 14 5 41 59 18 5 5 18 10 100
5 45 5 82 100 87 78 44 94 100 16 5 5 5 24 5 5 42 39 38 66 95 79 100 99 99 100 98 98 8 69 21 5 27 99 60 13 99
6 52 99 86 11 27 5 69 85 5 5 35 71 94 79 60 81 96 8 62 69 99 97 98 100 99 100 100 100 74 92 99 43 100 98 95 100 100
10 82 54 5 5 4 4 5 5 5 81 80 58 83 96 100 100 95 100 100 100 73 100 92 94 100 100 96 100 92 94 100 91 51 82 100 87 100
100 8 1 5 4 5 5 5 5 6 71 73 100 100 92 100 94 87 100 100 100 100 70 25 97 79 48 94 99 75 100 100 99 60 62 100 57 99
53 5 5 5 5 5 5 5 5 60 93 99 100 100 100 100 99 96 97 100 100 95 100 88 78 92 28 56 100 100 100 98 32 77 100 100 100 100
5 5 5 5 5 5 5 58 99 98 100 100 100 100 100 100 100 100 100 100 96 98 78 97 100 100 100 100 100 100 100 73 89 100 100 100 100 100
5 5 5 17 64 77 99 100 100 100 100 100 100 100 100 100 96 100 100 100 100 90 89 46 98 100 100 100 100 93 100 96 100 97 74 100 100 100
5 5 32 74 83 100 100 100 100 100 100 100 99 100 100 100 89 98 100 95 100 99 97 98 100 94 100 85 100 60 100 100 100 100 100 100 100 100
5 5 58 90 99 100 99 100 100 100 100 100 100 100 100 100 100 100 100 100 96 100 100 99 95 72 85 100 100 100 100 84 100 100 100 100 100 100
5 39 92 99 99 99 100 100 100 100 100 100 100 100 100 100 100 100 100 100 100 100 100 85 100 100 100 100 100 100 93 31 100 90 100 100 100 100

GFSNE_prec_cloud_045.txt.gz
Cloud_Cover
94 88 100 100 100 100 100 100 95 80 100 100 100 8 5 0 0 0 1 0 2 5 5 63 97 95 99 100 100 100 100 100 100 99 100 100 100 100
87 84 89 100 100 100 100 96 28 5 6 29 60 5 5 4 0 0 0 0 0 5 10 97 67 95 100 100 100 100 100 100 100 100 100 100 100 100
96 99 71 59 80 93 75 50 13 5 5 5 2 0 0 0 0 0 0 0 0 5 5 5 87 100 100 100 100 100 100 100 100 100 100 100 100 100
99 100 60 54 77 9 53 80 36 5 5 5 5 5 1 4 5 5 4 5 5 5 5 88 72 100 77 100 100 100 100 100 100 100 100 100 100 100
92 84 68 100 34 16 5 10 49 34 6 5 5 5 5 5 5 5 5 5 5 5 5 4 5 7 98 100 100 100 98 100 100 100 100 100 100 100
100 89 100 95 63 7 5 8 5 5 5 5 36 5 5 6 24 58 22 5 5 5 4 3 14 5 12 5 12 5 16 100 99 100 100 100 100 100
100 81 100 84 5 24 5 5 5 5 5 87 82 51 94 81 50 5 23 5 5 5 22 5 5 5 5 5 5 5 72 100 100 100 100 100 100 100
100 100 98 100 98 100 79 5 29 70 100 100 99 100 91 6 5 74 5 5 82 9 100 76 5 5 5 5 8 87 75 100 100 100 100 100 100 100
100 98 100 100 100 69 6 6 36 67 92 100 57 5 52 6 8 22 40 100 97 60 76 99 5 5 5 5 5 5 84 100 100 100 100 100 100 100
100 100 100 100 96 87 6 80 100 38 5 5 57 86 92 85 100 100 99 93 8 5 6 100 25 15 5 5 5 5 5 29 100 100 98 100 100 100
100 100 100 76 40 71 91 60 10 5 5 5 17 87 96 78 81 100 27 89 89 24 5 98 10 19 51 5 5 2 5 60 14 91 99 100 100 100
100 100 99 33 63 97 100 96 97 46 5 28 5 5 3 5 5 10 69 100 100 97 36 94 88 95 97 5 7 5 4 4 5 21 93 98 99 100
100 77 96 100 100 100 100 93 49 100 61 6 3 0 0 5 5 5 41 100 100 99 86 100 100 99 100 86 22 5 5 5 5 5 5 17 34 100
100 100 97 95 100 90 55 25 92 92 3 0 4 5 5 5 5 5 38 84 69 100 70 100 99 99 100 97 98 5 5 5 5 5 13 49 26 65
75 89 100 99 23 4 4 9 10 4 5 5 32 30 7 54 70 94 28 78 81 86 90 100 96 97 100 100 100 90 94 19 56 12 19 93 85 92
14 99 34 3 4 3 2 4 5 5 41 73 69 88 96 99 100 88 100 98 100 97 100 73 73 75 100 100 100 100 94 100 100 74 100 100 100 100
91 5 0 2 5 5 5 5 5 9 68 66 100 100 97 100 100 100 100 100 100 92 62 5 5 5 79 100 100 90 87 78 83 100 100 98 91 83
13 2 5 5 5 5 5 5 45 89 98 100 100 100 100 100 100 98 100 100 100 96 100 65 56 78 19 99 98 99 90 88 34 41 91 100 100 100
5 5 5 5 5 5 74 100 100 100 98 100 100 100 100 100 100 100 100 100 98 100 78 71 100 100 100 100 100 100 100 84 82 98 66 97 100 100
5 5 5 5 48 97 100 100 100 100 100 100 100 100 100 100 99 100 100 100 100 94 95 84 100 100 100 100 100 96 100 100 100 97 79 68 100 100
5 5 5 50 97 100 100 100 100 100 100 100 98 100 100 100 88 99 100 99 100 99 98 96 100 99 95 98 100 96 100 100 100 100 98 100 100 100
5 5 34 92 100 100 100 100 100 100 100 100 99 100 100 100 100 100 100 100 96 100 100 93 84 99 100 100 100 93 100 100 100 98 100 100 100 100
6 70 99 100 100 100 100 100 100 100 100 100 100 100 100 100 99 100 100 100 100 100 100 100 100 100 100 100 100 100 87 31 80 100 100 100 100 100

GFSNE_prec_cloud_048.txt.gz
Cloud_Cover
100 100 40 5 5 5 5 5 17 61 94 100 100 100 100 83 33 6 5 5 2 5 5 5 42 93 96 100 100 100 100 92 100 100 100 100 100 96
100 99 19 5 5 8 19 5 5 5 2 27 70 77 68 26 53 17 5 0 4 5 5 12 84 99 100 99 100 100 100 100 100 100 100 100 100 100
100 98 82 58 98 90 34 27 45 10 5 4 0 5 5 5 5 5 5 3 5 2 5 27 85 100 100 100 100 100 100 100 100 100 100 100 100 100
100 100 79 98 83 94 80 94 87 90 51 6 5 5 5 5 5 5 4 1 5 5 14 80 98 99 100 100 100 100 100 100 100 100 100 100 100 100
100 100 99 100 100 100 96 99 100 100 99 13 5 5 5 5 5 5 5 5 5 5 5 5 5 39 95 100 100 100 100 100 100 99 100 100 100 100
100 100 83 86 100 100 100 100 100 100 100 89 67 63 67 5 5 8 29 5 5 5 5 5 29 5 5 17 20 6 5 5 81 96 100 100 100 100
99 91 91 100 100 100 100 100 100 100 100 100 91 57 49 58 12 5 5 5 5 5 5 77 5 5 5 5 5 5 5 95 96 100 100 100 100 100
100 100 100 100 86 100 100 92 100 100 98 100 99 67 18 5 5 5 31 48 90 5 19 92 5 5 5 5 5 86 100 100 100 100 100 100 100 100
100 100 100 100 100 96 100 99 95 100 100 100 90 12 7 5 31 30 75 100 94 9 23 95 5 5 5 5 5 5 87 99 100 100 100 100 100 100
100 100 100 100 73 100 100 100 100 100 95 89 14 25 78 80 100 100 99 73 5 5 5 98 5 5 5 5 5 5 8 9 74 100 100 100 100 100
100 100 92 100 100 100 100 100 100 33 5 5 18 46 66 77 29 82 12 70 83 71 5 86 11 6 26 5 5 12 5 81 47 21 99 99 100 100
100 100 99 88 99 100 100 92 71 82 31 10 5 4 0 0 5 5 5 100 100 100 5 79 60 90 90 5 3 100 13 5 5 81 95 100 100 100
85 91 99 100 100 100 100 100 97 100 63 5 2 0 0 5 5 5 5 99 100 100 21 100 96 93 100 86 34 33 5 5 5 5 5 61 88 100
97 100 100 100 100 100 92 87 84 85 4 0 5 5 5 5 5 5 6 87 86 92 72 100 99 94 100 94 100 5 5 5 5 5 5 14 44 64
26 95 91 62 9 5 4 18 19 5 5 5 45 39 17 60 48 85 63 62 33 100 100 95 97 98 100 100 100 95 95 22 6 44 5 18 66 100
39 63 27 1 4 5 4 2 5 5 67 60 48 86 97 89 99 92 100 99 100 69 100 100 67 97 100 99 100 100 99 99 59 71 75 84 84 98
85 4 0 2 5 5 5 5 5 8 68 77 100 100 98 100 99 76 100 100 100 98 63 32 6 11 92 100 100 96 94 91 91 100 100 100 93 87
8 3 5 5 5 5 34 55 66 74 92 100 100 100 100 100 100 100 100 100 100 92 100 39 57 92 69 88 100 97 97 85 76 96 100 100 100 84
5 5 5 5 5 57 97 100 100 95 87 100 100 100 100 99 100 100 98 100 94 99 77 98 100 100 100 100 100 100 100 99 99 100 66 100 100 88
5 5 5 7 67 99 100 100 100 100 100 100 100 99 100 100 99 99 97 100 100 90 96 99 100 100 100 100 100 100 100 100 100 99 92 86 100 100
5 5 5 35 99 100 99 94 100 100 100 100 99 100 96 100 86 99 100 96 100 97 95 86 100 100 100 100 100 100 100 100 100 100 98 100 100 100
5 10 52 95 100 100 100 100 100 100 99 100 100 100 100 100 100 99 100 100 98 100 100 100 100 100 100 100 100 100 99 100 100 100 100 100 100 100
5 79 100 100 100 100 100 93 99 100 100 100 100 100 100 100 99 100 96 100 100 100 100 100 100 100 100 100 100 100 100 100 100 100 100 100 100 100